[[{"header":{"parameterUnit":"m.s-1","parameterCategory":1,"la1":30.2991,"la2":30.254,"lo1":-89.0895,"lo2":-89.0444,"dy":0.0017,"dx":0.0017,"nx":28,"ny":28,"refTime":"2024-04-02T03:00:00:Z","depth":0,"parameterNumber":2,"parameterNumberName":"U-component_of_WINDS"},"data":[0,0,0,0,0,0,0,0,0,0,0,0,0,0,0,0,0,0,0,0,0,0,0,0,0,0,0,0,0,0,0,0,0,0,0,0,0,0,0,0,0,0,0,0,0,0,0,0,0,0,0,0,0,0,0,0,0,0,6.1216,6.1217,0,6.1312,6.1313,6.1314,6.1289,6.1287,6.1285,6.1283,6.1381,6.1385,6.1389,0,0,0,0,0,0,0,0,0,0,0,0,0,6.1014,6.1018,6.1216,6.1217,6.1219,6.1311,6.1313,6.1314,6.1289,6.1287,6.1285,6.1282,6.1379,6.1384,6.139,0,0,0,0,0,0,0,0,0,0,0,0,0,6.1105,6.1019,6.1216,6.1217,6.1218,6.1311,6.1313,6.1314,6.129,6.1287,6.1284,6.1281,6.1377,6.1384,6.139,6.1487,0,0,6.141,6.1413,0,0,0,0,0,0,0,0,6.11,6.1112,6.1216,6.1217,6.1219,6.1285,6.1277,6.1372,6.129,6.1263,6.1283,6.128,6.1351,6.136,6.1384,6.1492,6.1496,6.1411,6.1415,6.1418,6.1419,0,0,0,0,0,0,0,6.1093,6.1108,6.1254,6.1217,6.1219,6.1214,6.1223,6.1295,6.1322,6.1265,6.1263,6.1275,6.1351,6.1378,6.1386,6.1498,6.1411,6.1416,6.142,6.1423,6.1694,6.1697,0,0,0,0,0,0,6.1086,6.1103,6.1251,6.1257,6.1151,6.122,6.1231,6.1267,6.1321,6.1326,6.1277,6.1273,6.1368,6.1378,6.1389,6.1509,6.1418,6.1424,6.1427,6.169,6.1694,6.1698,0,0,0,0,0,0,6.1082,6.1099,6.1247,6.1179,6.1198,6.1226,6.1267,6.127,6.1296,6.133,6.1335,6.1299,6.1366,6.138,6.1464,6.1512,6.1427,6.1433,6.1687,6.1692,6.1696,6.1747,0,0,0,0,0,0,6.1076,6.1098,6.1134,6.118,6.1202,6.132,6.127,6.1274,6.1308,6.1304,6.1352,6.1357,6.1365,6.1454,6.1471,6.1519,6.1438,6.1682,6.1689,6.1695,6.1741,6.1753,6.1763,0,0,0,0,0,6.1069,6.1144,6.1136,6.1154,6.1248,6.1322,6.1334,6.1342,6.1312,6.1349,6.1372,6.1356,6.1504,6.1463,6.1481,6.1532,6.1679,6.1687,6.1694,6.1736,6.1751,6.1763,0,0,0,0,0,0,6.1102,6.115,6.1142,6.1234,6.1275,6.1318,6.1365,6.1357,6.1406,6.14,6.1407,6.1418,6.1505,6.1527,6.1481,6.1631,6.1587,6.1599,6.1613,6.1627,6.1638,6.1631,6.1443,0,0,0,0,0,6.112,6.1177,6.1216,6.1294,6.1314,6.1337,6.1369,6.1372,6.1414,6.143,6.1459,6.15,6.1556,6.1593,6.1646,6.1744,6.1756,6.1789,6.18,6.1809,6.1818,6.1875,6.189,6.1722,6.1722,6.1722,0,0,6.1158,6.1191,6.1226,6.1301,6.1333,6.1392,6.1351,6.1414,6.1459,6.144,6.1522,6.1544,6.1591,6.1683,6.1725,6.1704,6.1868,6.1818,6.1825,6.183,6.1884,6.19,6.1914,6.1727,6.1726,6.1725,0,0,6.1258,6.1288,6.1358,6.1391,6.1439,6.1454,6.1471,6.1517,6.1531,6.1613,6.1601,6.1654,6.175,6.1785,6.1815,6.1931,6.1919,6.1948,6.2006,6.2061,6.2074,6.2086,6.2129,6.2144,6.1958,6.1958,6.1958,0,6.1299,6.1387,6.1394,6.146,6.1494,6.1481,6.1553,6.1584,6.1648,6.1672,6.1648,6.177,6.18,6.1902,6.1931,6.1955,6.1975,6.1943,6.2071,6.2083,6.2094,6.2136,6.2152,6.1962,6.1961,6.1961,6.196,0,6.1436,6.1498,6.1548,6.1611,6.1651,6.1719,6.1738,6.1777,6.1777,6.1795,6.188,6.1917,6.1978,6.2003,6.2002,6.2105,6.2091,6.2069,6.2026,6.2114,6.2153,6.2169,6.1966,6.1965,6.1964,6.1963,0,0,6.1558,6.1626,6.1645,6.1674,6.1728,6.1776,6.1845,6.1906,6.1941,6.1986,6.2044,6.2127,6.2108,6.2143,6.2147,6.2195,6.2287,6.2167,6.2169,6.219,6.2405,6.2422,6.244,6.228,6.2283,6.2285,6.2402,0,6.1664,6.1784,6.1794,6.1903,6.1961,6.1951,6.2011,6.2052,6.2071,6.2124,6.2145,6.2204,6.2174,6.2195,6.2242,6.2266,6.2331,6.2258,6.2335,6.2338,6.2325,6.246,6.2478,6.2586,6.2417,6.2419,6.2421,0,6.1802,6.1853,6.1968,6.2017,6.2042,6.2095,6.2154,6.2204,6.225,6.2261,6.2301,6.2299,6.2371,6.2325,6.2425,6.2375,6.2408,6.2425,6.2429,6.2437,6.2385,6.2473,6.262,6.2637,6.2445,6.2443,6.2442,0,6.1882,6.1979,6.2061,6.2086,6.2144,6.2183,6.2209,6.2252,6.229,6.2341,6.2365,6.2424,6.2456,6.2502,6.2517,6.2482,6.2617,6.2572,6.2629,6.2629,6.2658,6.2656,6.2814,6.2678,6.2678,6.2677,6.2677,0,6.1999,6.2071,6.2098,6.2148,6.2229,6.224,6.2319,6.2343,6.2383,6.2439,6.2433,6.2486,6.2502,6.2558,6.257,6.2652,6.2666,6.2678,6.268,6.2679,6.2678,6.2701,6.2694,6.2682,6.2681,6.268,6.2679,0,6.2102,6.2123,6.2212,6.226,6.2274,6.2332,6.2373,6.2423,6.2442,6.2513,6.253,6.256,6.2626,6.2646,6.2724,6.2733,6.283,6.2825,6.2814,6.2815,6.2872,6.2867,6.305,6.3076,6.2922,6.2923,6.2925,0,6.2176,6.2231,6.2286,6.2323,6.2351,6.2411,6.245,6.2463,6.2504,6.2562,6.2605,6.2671,6.2723,6.2829,6.2859,6.292,6.2917,6.2977,6.2926,6.2924,6.292,6.2917,6.2923,6.2987,6.2988,6.299,6.2991,0,6.2306,6.2314,6.2369,6.243,6.2476,6.2524,6.257,6.2601,6.2622,6.2667,6.2735,6.2776,6.2858,6.2924,6.2986,6.3013,6.3007,6.3007,6.3024,6.3023,6.3015,6.3022,6.2842,6.3003,6.3001,6.3,6.3,6.2999,6.2397,6.2446,6.2494,6.2557,6.2593,6.2637,6.2687,6.2713,6.2769,6.2837,6.2842,6.2916,6.2963,6.3047,6.3078,6.3136,6.3119,6.3143,6.3149,6.3155,6.3161,6.3006,6.3148,6.3147,6.3147,6.3147,6.3147,0,6.2528,6.2559,6.2616,6.2682,6.2732,6.2721,6.2772,6.2815,6.288,6.2925,6.2978,6.3057,6.3121,6.3157,6.3221,6.3261,6.326,6.3278,6.3275,6.3282,6.3172,6.3151,6.3278,6.3278,6.3278,6.3278,6.3278,6.3278,6.2602,6.2686,6.27,6.2803,6.2833,6.2905,6.2936,6.2977,6.3013,6.3102,6.3155,6.3178,6.322,6.3288,6.3347,6.3355,6.338,6.34,6.3407,6.3303,6.329,6.3277,6.3258,6.3405,6.3405,6.3513,6.3514,6.3515]},{"header":{"parameterUnit":"m.s-1","parameterCategory":1,"la1":30.2991,"la2":30.254,"lo1":-89.0895,"lo2":-89.0444,"dy":0.0017,"dx":0.0017,"nx":28,"ny":28,"refTime":"2024-04-02T03:00:00:Z","depth":0,"parameterNumber":3,"parameterNumberName":"V-component_of_WINDS"},"data":[0,0,0,0,0,0,0,0,0,0,0,0,0,0,0,0,0,0,0,0,0,0,0,0,0,0,0,0,0,0,0,0,0,0,0,0,0,0,0,0,0,0,0,0,0,0,0,0,0,0,0,0,0,0,0,0,0,0,-3.6991,-3.6991,0,-3.7047,-3.7048,-3.7049,-3.7069,-3.7068,-3.7068,-3.7068,-3.7124,-3.7125,-3.7127,0,0,0,0,0,0,0,0,0,0,0,0,0,-3.6899,-3.69,-3.699,-3.6991,-3.6992,-3.7047,-3.7048,-3.7049,-3.7069,-3.7068,-3.7068,-3.7068,-3.7123,-3.7125,-3.7127,0,0,0,0,0,0,0,0,0,0,0,0,0,-3.6945,-3.6901,-3.699,-3.7009,-3.7011,-3.7047,-3.7048,-3.7049,-3.7069,-3.7068,-3.7068,-3.7068,-3.7122,-3.7125,-3.7127,-3.7149,0,0,-3.7135,-3.7136,0,0,0,0,0,0,0,0,-3.6943,-3.6949,-3.7005,-3.7007,-3.701,-3.7051,-3.7036,-3.7082,-3.7069,-3.7047,-3.7068,-3.7068,-3.7099,-3.7104,-3.7115,-3.7151,-3.7154,-3.7135,-3.7137,-3.7138,-3.7138,0,0,0,0,0,0,0,-3.6939,-3.6946,-3.7013,-3.7006,-3.7009,-3.7014,-3.702,-3.7045,-3.7074,-3.7049,-3.705,-3.7057,-3.7101,-3.7112,-3.7116,-3.7155,-3.7135,-3.7137,-3.7139,-3.714,-3.7214,-3.7215,0,0,0,0,0,0,-3.6933,-3.6944,-3.7011,-3.7015,-3.6975,-3.7016,-3.7023,-3.7038,-3.7074,-3.7079,-3.7057,-3.7057,-3.7108,-3.7113,-3.7118,-3.7148,-3.7138,-3.714,-3.7141,-3.7214,-3.7215,-3.7215,0,0,0,0,0,0,-3.6931,-3.6939,-3.7009,-3.698,-3.6989,-3.7018,-3.7034,-3.7039,-3.7051,-3.708,-3.7085,-3.7064,-3.7108,-3.7115,-3.7142,-3.715,-3.7141,-3.7143,-3.7213,-3.7214,-3.7215,-3.7205,0,0,0,0,0,0,-3.6929,-3.6938,-3.6947,-3.698,-3.699,-3.7031,-3.7035,-3.704,-3.7056,-3.7057,-3.7088,-3.7093,-3.7109,-3.7138,-3.7144,-3.7153,-3.7145,-3.7213,-3.7214,-3.7215,-3.7205,-3.7206,-3.7206,0,0,0,0,0,-3.6925,-3.694,-3.6947,-3.6955,-3.7001,-3.7032,-3.7038,-3.7056,-3.7056,-3.7065,-3.7084,-3.7092,-3.7148,-3.7141,-3.7148,-3.7157,-3.7212,-3.7213,-3.7215,-3.7205,-3.7205,-3.7206,0,0,0,0,0,0,-3.6906,-3.6945,-3.6953,-3.6979,-3.7002,-3.7035,-3.7046,-3.7056,-3.7079,-3.7079,-3.7101,-3.7107,-3.7133,-3.7148,-3.7139,-3.7182,-3.7181,-3.7183,-3.7171,-3.7172,-3.7172,-3.7168,-3.7147,0,0,0,0,0,-3.6905,-3.6927,-3.696,-3.698,-3.6991,-3.7017,-3.7031,-3.7044,-3.7068,-3.7077,-3.7098,-3.7121,-3.7145,-3.7159,-3.7182,-3.7208,-3.7216,-3.7218,-3.7219,-3.7219,-3.7221,-3.7238,-3.724,-3.7219,-3.7219,-3.7219,0,0,-3.6902,-3.6927,-3.6939,-3.6977,-3.6996,-3.7018,-3.7025,-3.7047,-3.7064,-3.708,-3.7108,-3.7124,-3.7152,-3.7179,-3.7192,-3.7192,-3.7229,-3.722,-3.722,-3.7222,-3.7239,-3.7241,-3.7243,-3.7219,-3.7219,-3.7219,0,0,-3.691,-3.693,-3.695,-3.697,-3.7,-3.7018,-3.7023,-3.7055,-3.7067,-3.7096,-3.7109,-3.7129,-3.7168,-3.7188,-3.7203,-3.7221,-3.723,-3.7228,-3.7231,-3.7247,-3.7249,-3.725,-3.7258,-3.7261,-3.723,-3.723,-3.723,0,-3.6902,-3.6937,-3.6959,-3.6982,-3.6999,-3.7017,-3.7038,-3.7056,-3.7091,-3.7102,-3.7103,-3.7154,-3.7173,-3.7207,-3.7212,-3.7223,-3.723,-3.7224,-3.7247,-3.7249,-3.7251,-3.7258,-3.7261,-3.723,-3.723,-3.723,-3.723,0,-3.6928,-3.6952,-3.6964,-3.7,-3.7019,-3.704,-3.7066,-3.7082,-3.7094,-3.7112,-3.7141,-3.7166,-3.7195,-3.7204,-3.7215,-3.724,-3.7239,-3.7243,-3.7242,-3.7252,-3.726,-3.7263,-3.7229,-3.7229,-3.7229,-3.723,0,0,-3.6921,-3.6972,-3.6976,-3.6994,-3.703,-3.7049,-3.7072,-3.7103,-3.7117,-3.7141,-3.7162,-3.7196,-3.7201,-3.7218,-3.7232,-3.7246,-3.7262,-3.7249,-3.725,-3.7251,-3.7292,-3.7289,-3.7292,-3.7268,-3.7269,-3.7269,-3.729,0,-3.6934,-3.6977,-3.6999,-3.7033,-3.7056,-3.7075,-3.7096,-3.7121,-3.7139,-3.7161,-3.7181,-3.7206,-3.7209,-3.722,-3.7236,-3.7256,-3.727,-3.7255,-3.7288,-3.7288,-3.728,-3.7296,-3.7292,-3.731,-3.7293,-3.7294,-3.7294,0,-3.6953,-3.698,-3.7017,-3.7053,-3.7064,-3.7082,-3.7113,-3.7134,-3.7163,-3.7176,-3.7197,-3.7211,-3.7237,-3.7235,-3.7272,-3.7262,-3.7277,-3.7289,-3.7291,-3.7294,-3.7291,-3.73,-3.7317,-3.732,-3.7299,-3.7298,-3.7298,0,-3.6947,-3.6992,-3.7021,-3.7035,-3.7077,-3.709,-3.7108,-3.7138,-3.7155,-3.7182,-3.7194,-3.7223,-3.7239,-3.7262,-3.7284,-3.728,-3.7319,-3.7319,-3.733,-3.733,-3.7337,-3.7336,-3.7357,-3.7346,-3.7346,-3.7346,-3.7346,0,-3.6958,-3.698,-3.7019,-3.7036,-3.7062,-3.7087,-3.7112,-3.7132,-3.7158,-3.718,-3.7198,-3.7218,-3.7246,-3.727,-3.7288,-3.7317,-3.7324,-3.7335,-3.7339,-3.7333,-3.7332,-3.7343,-3.7342,-3.7347,-3.7347,-3.7347,-3.7347,0,-3.6954,-3.6981,-3.7014,-3.7052,-3.7063,-3.708,-3.7114,-3.7132,-3.7152,-3.718,-3.7188,-3.7219,-3.7249,-3.7274,-3.7312,-3.7324,-3.7354,-3.7359,-3.7345,-3.7347,-3.7357,-3.7356,-3.7385,-3.7391,-3.7377,-3.7377,-3.7377,0,-3.696,-3.6978,-3.7019,-3.7036,-3.7055,-3.7081,-3.71,-3.7127,-3.7146,-3.7182,-3.7196,-3.7228,-3.7254,-3.73,-3.7327,-3.7357,-3.7363,-3.7371,-3.7367,-3.7361,-3.7364,-3.7363,-3.7365,-3.7371,-3.7371,-3.7371,-3.7371,0,-3.6967,-3.698,-3.7007,-3.704,-3.7063,-3.7089,-3.7116,-3.7129,-3.716,-3.7181,-3.7212,-3.7233,-3.7274,-3.7305,-3.7339,-3.7358,-3.737,-3.7372,-3.7377,-3.7371,-3.7362,-3.7368,-3.7346,-3.7371,-3.7371,-3.7371,-3.7371,-3.7371,-3.6969,-3.6986,-3.7019,-3.705,-3.7074,-3.7099,-3.7119,-3.7143,-3.717,-3.7206,-3.722,-3.7253,-3.7284,-3.733,-3.735,-3.7376,-3.7377,-3.7383,-3.7385,-3.7386,-3.7386,-3.7358,-3.7382,-3.7382,-3.7382,-3.7382,-3.7382,0,-3.6978,-3.7001,-3.7029,-3.7067,-3.7091,-3.7103,-3.7134,-3.7154,-3.7182,-3.7211,-3.7238,-3.7275,-3.7306,-3.7336,-3.7369,-3.7384,-3.7391,-3.7392,-3.7391,-3.7396,-3.7382,-3.7375,-3.7386,-3.7386,-3.7386,-3.7386,-3.7386,-3.7386,-3.6985,-3.7016,-3.7034,-3.7078,-3.7101,-3.7134,-3.7151,-3.7175,-3.7198,-3.724,-3.7266,-3.7286,-3.7316,-3.7352,-3.7382,-3.739,-3.7401,-3.7401,-3.741,-3.7397,-3.7396,-3.7395,-3.7389,-3.7403,-3.7403,-3.7422,-3.7422,-3.7422]}]]